DLH7EV EDDF-EDDM

Flight info

Callsign DLH7EV
Flight time 0h 36m
Altitude 23000
Route CINDY8S/18 CINDY Z74 HAREM T104 ROKIL ROKIL1B
Aircraft A20N/M-SDE2E3FGHIRWXY/LB1

Departure

Time 2026-05-04 19:32
Airport Frankfurt Main Airport (EDDF)

Arrival

Time 2026-05-04 20:08
Airport Munich Airport (EDDM)
Time Latitude Longitude Altitude Speed Heading
2026-05-04 19:17 50.04416 8.56277 360 ft 0 kts 164°
2026-05-04 19:21 50.04431 8.56271 365 ft 2 kts 164°
2026-05-04 19:21 50.04449 8.56263 362 ft 3 kts 164°
2026-05-04 19:21 50.04471 8.56254 360 ft 3 kts 192°
2026-05-04 19:22 50.04489 8.56273 360 ft 3 kts 248°
2026-05-04 19:22 50.04494 8.56295 361 ft 0 kts 250°
2026-05-04 19:25 50.04492 8.56288 360 ft 2 kts 250°
2026-05-04 19:25 50.04479 8.56230 363 ft 12 kts 250°
2026-05-04 19:25 50.04434 8.56056 362 ft 19 kts 236°
2026-05-04 19:26 50.04312 8.56073 364 ft 20 kts 163°
2026-05-04 19:26 50.04249 8.55983 362 ft 14 kts 249°
2026-05-04 19:26 50.04212 8.55829 360 ft 16 kts 249°
2026-05-04 19:26 50.04171 8.55660 359 ft 18 kts 254°
2026-05-04 19:27 50.04123 8.55455 367 ft 25 kts 249°
2026-05-04 19:27 50.04051 8.55161 363 ft 31 kts 251°
2026-05-04 19:27 50.03979 8.54850 365 ft 26 kts 249°
2026-05-04 19:27 50.03914 8.54579 361 ft 27 kts 249°
2026-05-04 19:28 50.03834 8.54318 361 ft 27 kts 236°
2026-05-04 19:28 50.03757 8.54046 360 ft 28 kts 249°
2026-05-04 19:28 50.03701 8.53812 360 ft 19 kts 249°
2026-05-04 19:28 50.03653 8.53615 358 ft 21 kts 249°
2026-05-04 19:29 50.03600 8.53402 361 ft 22 kts 249°
2026-05-04 19:29 50.03552 8.53198 359 ft 18 kts 250°
2026-05-04 19:29 50.03512 8.53029 361 ft 11 kts 249°
2026-05-04 19:29 50.03484 8.52911 362 ft 13 kts 250°
2026-05-04 19:30 50.03445 8.52778 363 ft 14 kts 244°
2026-05-04 19:30 50.03421 8.52673 361 ft 9 kts 249°
2026-05-04 19:30 50.03368 8.52599 363 ft 12 kts 198°
2026-05-04 19:30 50.03297 8.52594 363 ft 10 kts 180°
2026-05-04 19:31 50.03192 8.52595 359 ft 27 kts 179°
2026-05-04 19:31 50.02809 8.52600 359 ft 85 kts 180°
2026-05-04 19:31 50.02050 8.52606 363 ft 133 kts 180°
2026-05-04 19:31 50.01043 8.52630 650 ft 144 kts 180°
2026-05-04 19:32 50.00044 8.52662 1115 ft 145 kts 180°
2026-05-04 19:32 49.99022 8.52661 1525 ft 151 kts 181°
2026-05-04 19:32 49.97946 8.52653 1956 ft 156 kts 179°
2026-05-04 19:32 49.96849 8.53043 2219 ft 173 kts 152°
2026-05-04 19:33 49.95911 8.54331 2529 ft 189 kts 124°
2026-05-04 19:33 49.95225 8.56196 2851 ft 211 kts 118°
2026-05-04 19:33 49.94497 8.58348 3205 ft 237 kts 116°
2026-05-04 19:33 49.93955 8.60802 3913 ft 235 kts 99°
2026-05-04 19:34 49.93870 8.63331 4398 ft 244 kts 92°
2026-05-04 19:34 49.93818 8.66108 4939 ft 267 kts 94°
2026-05-04 19:34 49.93512 8.68940 5796 ft 270 kts 114°
2026-05-04 19:34 49.92502 8.71350 6812 ft 266 kts 139°
2026-05-04 19:35 49.91038 8.73149 7721 ft 270 kts 149°
2026-05-04 19:35 49.89463 8.74757 8595 ft 276 kts 146°
2026-05-04 19:35 49.88053 8.76840 9565 ft 284 kts 132°
2026-05-04 19:35 49.86968 8.79435 10106 ft 298 kts 122°
2026-05-04 19:36 49.85926 8.82374 10382 ft 323 kts 122°
2026-05-04 19:36 49.84792 8.85530 10648 ft 338 kts 122°
2026-05-04 19:36 49.83650 8.88698 10973 ft 343 kts 122°
2026-05-04 19:36 49.82463 8.91979 11870 ft 345 kts 122°
2026-05-04 19:37 49.81292 8.95206 12677 ft 350 kts 122°
2026-05-04 19:37 49.80088 8.98516 13499 ft 354 kts 122°
2026-05-04 19:37 49.78884 9.01820 14236 ft 359 kts 122°
2026-05-04 19:37 49.77644 9.05219 14975 ft 363 kts 122°
2026-05-04 19:38 49.76491 9.08717 15743 ft 367 kts 115°
2026-05-04 19:38 49.75657 9.12448 16436 ft 374 kts 107°
2026-05-04 19:38 49.74930 9.16361 17155 ft 375 kts 114°
2026-05-04 19:38 49.73788 9.19949 17836 ft 376 kts 125°
2026-05-04 19:39 49.72222 9.23159 18492 ft 377 kts 134°
2026-05-04 19:39 49.70469 9.26230 19116 ft 380 kts 134°
2026-05-04 19:39 49.68720 9.29310 19724 ft 384 kts 134°
2026-05-04 19:39 49.66965 9.32410 20136 ft 387 kts 134°
2026-05-04 19:40 49.65179 9.35563 20516 ft 389 kts 134°
2026-05-04 19:40 49.63384 9.38733 20893 ft 391 kts 134°
2026-05-04 19:40 49.61600 9.41876 21273 ft 393 kts 135°
2026-05-04 19:40 49.59777 9.45083 21669 ft 396 kts 135°
2026-05-04 19:41 49.57967 9.48262 22035 ft 400 kts 134°
2026-05-04 19:41 49.56110 9.51519 22437 ft 403 kts 134°
2026-05-04 19:41 49.54277 9.54733 22791 ft 406 kts 135°
2026-05-04 19:41 49.52406 9.58010 22945 ft 407 kts 135°
2026-05-04 19:42 49.50526 9.61298 22975 ft 407 kts 135°
2026-05-04 19:42 49.48649 9.64577 22979 ft 407 kts 135°
2026-05-04 19:42 49.46799 9.67804 22984 ft 407 kts 135°
2026-05-04 19:42 49.44920 9.71076 22984 ft 407 kts 135°
2026-05-04 19:43 49.43045 9.74337 22988 ft 406 kts 135°
2026-05-04 19:43 49.41185 9.77568 22990 ft 407 kts 135°
2026-05-04 19:43 49.39308 9.80826 22994 ft 407 kts 135°
2026-05-04 19:43 49.37420 9.84097 22995 ft 407 kts 135°
2026-05-04 19:44 49.35551 9.87324 22991 ft 408 kts 135°
2026-05-04 19:44 49.33655 9.90595 22995 ft 407 kts 135°
2026-05-04 19:44 49.31801 9.93788 22995 ft 407 kts 135°
2026-05-04 19:44 49.29913 9.97039 22997 ft 407 kts 135°
2026-05-04 19:45 49.28012 10.00306 22993 ft 407 kts 135°
2026-05-04 19:45 49.26141 10.03520 22992 ft 407 kts 135°
2026-05-04 19:45 49.24252 10.06759 22989 ft 407 kts 135°
2026-05-04 19:45 49.22386 10.09955 22987 ft 407 kts 135°
2026-05-04 19:46 49.20492 10.13194 22980 ft 407 kts 135°
2026-05-04 19:46 49.18607 10.16416 22983 ft 407 kts 135°
2026-05-04 19:46 49.16710 10.19662 22987 ft 407 kts 135°
2026-05-04 19:46 49.14840 10.22860 22971 ft 407 kts 135°
2026-05-04 19:47 49.12929 10.26086 22979 ft 408 kts 136°
2026-05-04 19:47 49.11003 10.29201 22983 ft 407 kts 136°
2026-05-04 19:47 49.09042 10.32325 22987 ft 407 kts 136°
2026-05-04 19:47 49.07070 10.35465 22987 ft 407 kts 136°
2026-05-04 19:48 49.05130 10.38562 22971 ft 407 kts 136°
2026-05-04 19:48 49.03168 10.41700 22972 ft 408 kts 136°
2026-05-04 19:48 49.01225 10.44811 22986 ft 407 kts 136°
2026-05-04 19:48 48.99273 10.47933 22980 ft 408 kts 136°
2026-05-04 19:49 48.97307 10.51070 22987 ft 408 kts 136°
2026-05-04 19:49 48.95369 10.54158 22977 ft 408 kts 136°
2026-05-04 19:49 48.93391 10.57304 22922 ft 408 kts 136°
2026-05-04 19:49 48.91448 10.60394 22651 ft 406 kts 136°
2026-05-04 19:50 48.89501 10.63488 22385 ft 402 kts 136°
2026-05-04 19:50 48.87551 10.66584 22074 ft 401 kts 136°
2026-05-04 19:50 48.85642 10.69609 21548 ft 401 kts 136°
2026-05-04 19:50 48.83710 10.72667 20998 ft 397 kts 136°
2026-05-04 19:51 48.81818 10.75658 20462 ft 393 kts 136°
2026-05-04 19:51 48.79923 10.78650 19929 ft 389 kts 136°
2026-05-04 19:51 48.78038 10.81615 19394 ft 386 kts 137°
2026-05-04 19:51 48.76201 10.84495 18873 ft 383 kts 137°
2026-05-04 19:52 48.74363 10.87373 18308 ft 380 kts 137°
2026-05-04 19:52 48.72532 10.90237 17833 ft 375 kts 137°
2026-05-04 19:52 48.70718 10.93073 17561 ft 373 kts 137°
2026-05-04 19:52 48.68895 10.95917 17287 ft 376 kts 137°
2026-05-04 19:53 48.67103 10.98704 17032 ft 373 kts 139°
2026-05-04 19:53 48.65178 11.01320 16942 ft 368 kts 141°
2026-05-04 19:53 48.63913 11.03046 16947 ft 370 kts 141°
2026-05-04 19:53 48.61358 11.06544 16934 ft 371 kts 141°
2026-05-04 19:54 48.60084 11.08273 16933 ft 371 kts 141°
2026-05-04 19:54 48.58162 11.10857 16940 ft 371 kts 141°
2026-05-04 19:54 48.56215 11.13456 16781 ft 371 kts 142°
2026-05-04 19:54 48.54315 11.15984 16390 ft 365 kts 142°
2026-05-04 19:55 48.52413 11.18511 15752 ft 361 kts 142°
2026-05-04 19:55 48.50524 11.21014 15402 ft 357 kts 142°
2026-05-04 19:55 48.48679 11.23455 15158 ft 356 kts 142°
2026-05-04 19:55 48.46824 11.25906 14916 ft 356 kts 142°
2026-05-04 19:56 48.44951 11.28379 14662 ft 354 kts 142°
2026-05-04 19:56 48.43188 11.30945 14421 ft 357 kts 131°
2026-05-04 19:56 48.42005 11.34265 14181 ft 364 kts 110°
2026-05-04 19:56 48.41650 11.38019 13952 ft 369 kts 90°
2026-05-04 19:57 48.41897 11.41887 13716 ft 370 kts 85°
2026-05-04 19:57 48.42258 11.45722 13455 ft 368 kts 84°
2026-05-04 19:57 48.42625 11.49554 13198 ft 366 kts 84°
2026-05-04 19:57 48.42963 11.53319 12822 ft 363 kts 85°
2026-05-04 19:58 48.43277 11.57040 12425 ft 349 kts 85°
2026-05-04 19:58 48.43566 11.60603 12033 ft 336 kts 85°
2026-05-04 19:58 48.43833 11.63995 11656 ft 323 kts 86°
2026-05-04 19:58 48.44091 11.67314 11268 ft 313 kts 86°
2026-05-04 19:59 48.44340 11.70541 10789 ft 307 kts 86°
2026-05-04 19:59 48.44582 11.73729 10298 ft 309 kts 85°
2026-05-04 19:59 48.44823 11.76912 9812 ft 305 kts 85°
2026-05-04 19:59 48.45065 11.80092 9286 ft 301 kts 85°
2026-05-04 20:00 48.45300 11.83172 8775 ft 298 kts 85°
2026-05-04 20:00 48.45534 11.86266 8265 ft 294 kts 85°
2026-05-04 20:00 48.45765 11.89295 7769 ft 291 kts 85°
2026-05-04 20:00 48.45995 11.92330 7278 ft 288 kts 85°
2026-05-04 20:01 48.46221 11.95332 6797 ft 285 kts 85°
2026-05-04 20:01 48.46441 11.98263 6317 ft 283 kts 85°
2026-05-04 20:01 48.46661 12.01204 5809 ft 280 kts 85°
2026-05-04 20:01 48.46875 12.04084 5316 ft 278 kts 85°
2026-05-04 20:02 48.47089 12.06974 4831 ft 275 kts 85°
2026-05-04 20:02 48.47230 12.09816 4491 ft 266 kts 92°
2026-05-04 20:02 48.46873 12.12464 4292 ft 257 kts 113°
2026-05-04 20:02 48.45918 12.14649 4094 ft 243 kts 138°
2026-05-04 20:03 48.44468 12.15762 4005 ft 235 kts 170°
2026-05-04 20:03 48.42850 12.15545 4018 ft 237 kts 201°
2026-05-04 20:03 48.41513 12.14113 4055 ft 240 kts 229°
2026-05-04 20:03 48.40525 12.12062 4018 ft 239 kts 235°
2026-05-04 20:04 48.39617 12.10052 3984 ft 223 kts 234°
2026-05-04 20:04 48.38866 12.08123 4008 ft 206 kts 252°
2026-05-04 20:04 48.38668 12.06099 3978 ft 192 kts 262°
2026-05-04 20:04 48.38510 12.04153 4006 ft 181 kts 262°
2026-05-04 20:05 48.38365 12.02266 4008 ft 184 kts 263°
2026-05-04 20:05 48.38184 12.00318 3883 ft 188 kts 261°
2026-05-04 20:05 48.37998 11.98370 3647 ft 189 kts 260°
2026-05-04 20:05 48.37797 11.96407 3374 ft 189 kts 262°
2026-05-04 20:06 48.37654 11.94448 3094 ft 191 kts 264°
2026-05-04 20:06 48.37526 11.92463 2801 ft 187 kts 265°
2026-05-04 20:06 48.37387 11.90607 2583 ft 173 kts 263°
2026-05-04 20:06 48.37237 11.88891 2394 ft 155 kts 262°
2026-05-04 20:07 48.37107 11.87345 2170 ft 148 kts 264°
2026-05-04 20:07 48.36969 11.85818 1962 ft 145 kts 264°
2026-05-04 20:07 48.36862 11.84335 1797 ft 142 kts 264°
2026-05-04 20:07 48.36743 11.82852 1600 ft 142 kts 264°
2026-05-04 20:08 48.36632 11.81414 1467 ft 135 kts 265°
2026-05-04 20:08 48.36557 11.80402 1464 ft 79 kts 262°
2026-05-04 20:08 48.36514 11.79921 1463 ft 27 kts 259°
2026-05-04 20:08 48.36441 11.79680 1460 ft 20 kts 232°
2026-05-04 20:09 48.36372 11.79542 1465 ft 10 kts 234°
2026-05-04 20:09 48.36334 11.79465 1462 ft 10 kts 234°
2026-05-04 20:09 48.36292 11.79377 1467 ft 12 kts 233°
2026-05-04 20:09 48.36235 11.79304 1460 ft 11 kts 202°
2026-05-04 20:10 48.36149 11.79307 1463 ft 14 kts 174°
2026-05-04 20:10 48.36043 11.79325 1462 ft 17 kts 173°
2026-05-04 20:10 48.35948 11.79343 1467 ft 10 kts 173°
2026-05-04 20:10 48.35898 11.79409 1463 ft 11 kts 95°
2026-05-04 20:11 48.35864 11.79517 1465 ft 13 kts 158°
2026-05-04 20:11 48.35783 11.79549 1458 ft 11 kts 134°
2026-05-04 20:11 48.35776 11.79667 1461 ft 13 kts 82°
2026-05-04 20:11 48.35789 11.79813 1459 ft 15 kts 87°
2026-05-04 20:12 48.35794 11.79981 1464 ft 17 kts 100°
2026-05-04 20:12 48.35703 11.80078 1459 ft 18 kts 173°
2026-05-04 20:12 48.35587 11.80140 1459 ft 19 kts 168°
2026-05-04 20:12 48.35451 11.80164 1462 ft 21 kts 173°
2026-05-04 20:13 48.35309 11.80205 1458 ft 20 kts 168°
2026-05-04 20:13 48.35202 11.80223 1459 ft 9 kts 169°
2026-05-04 20:13 48.35177 11.80302 1467 ft 10 kts 86°
2026-05-04 20:13 48.35183 11.80394 1467 ft 8 kts 83°
2026-05-04 20:14 48.35191 11.80491 1465 ft 11 kts 84°
2026-05-04 20:14 48.35193 11.80524 1467 ft 3 kts 84°
2026-05-04 20:14 48.35210 11.80543 1458 ft 0 kts 357°
2026-05-04 20:14 48.35232 11.80539 1461 ft 6 kts 353°
2026-05-04 20:15 48.35262 11.80534 1462 ft 0 kts 353°
2026-05-04 20:16 48.35257 11.80467 1467 ft 0 kts 353°